Location: *
(41.7492°S, 135.4150°W)
Time: 19:13:55
(UTC+00:00)

SL-4 R/B - Pass Details

Date: 20 September 2021
Orbit: 427 x 662 km, 51.6° (Epoch: 15 October)

Event Time Altitude Azimuth Distance (km) Brightness Sun altitude
Exits shadow 14:21:34 - 235° (SW) 2,932 5.3 -6.8°
Reaches altitude 10° 14:23:43 10° 232° (SW) 2,107 4.6 -6.4°
Maximum altitude 14:28:37 71° 148° (SSE) 707 2.7 -5.5°
Drops below altitude 10° 14:33:21 10° 63° (ENE) 2,042 6.0 -4.6°
Sets 14:35:38 0° 61° (ENE) 2,920 6.9 -4.2°
